KI4BIY Weather Reports


time (UTC)temp
C
wind
direction
speed
KPH
gust
KPH
rain 1hr
cm
rain 24hr
cm
rain mn
cm
humidity
%
barometer
mb
20260906123004 25 77 0.0 0.0 0.00 0.00 0.00 90 1012.5
20260906122503 25 72 0.0 0.0 0.00 0.00 0.00 92 1012.9
20260906121959 24 245 0.0 0.0 0.00 0.00 0.00 93 1012.7
20260906121455 23 246 0.0 0.0 0.00 0.00 0.00 94 1012.6
20260906120952 23 246 0.0 0.0 0.00 0.00 0.00 95 1012.5
20260906120447 23 11 0.0 0.0 0.00 0.00 0.00 95 1012.6
20260906115943 23 11 0.0 0.0 0.00 0.00 0.00 95 1012.4
20260906115438 23 322 0.0 0.0 0.00 0.00 0.00 95 1012.3
20260906114939 23 56 0.0 0.0 0.00 0.00 0.00 95 1012.3
20260906114438 23 262 0.0 0.0 0.00 0.00 0.00 95 1012.3
20260906113934 23 262 0.0 0.0 0.00 0.00 0.00 95 1012.1
20260906113433 23 289 0.0 0.0 0.00 0.00 0.00 95 1012.1
20260906112928 24 290 0.0 0.0 0.00 0.00 0.00 94 1011.9
20260906112424 24 290 0.0 0.0 0.00 0.00 0.00 94 1011.7
20260906111919 24 290 0.0 0.0 0.00 0.00 0.00 94 1011.6
20260906111419 24 290 0.0 0.0 0.00 0.00 0.00 94 1011.7
20260906110914 24 290 0.0 0.0 0.00 0.00 0.00 94 1011.2
20260906110409 24 290 0.0 0.0 0.00 0.00 0.00 94 1011.4
20260906105908 24 290 0.0 0.0 0.00 0.00 0.00 94 1011.4
20260906105404 24 289 0.0 0.0 0.00 0.00 0.00 95 1011.4
20260906104900 24 289 0.0 0.0 0.00 0.00 0.00 94 1011.5
20260906104358 24 288 0.0 0.0 0.00 0.00 0.00 94 1011.4
20260906103857 24 288 0.0 0.0 0.00 0.00 0.00 95 1011.4
20260906103355 24 288 0.0 0.0 0.00 0.00 0.00 95 1011.3
20260906102852 24 288 0.0 0.0 0.00 0.00 0.00 95 1011.3
20260906102350 24 288 0.0 0.0 0.00 0.00 0.00 95 1011.1
20260906101846 24 288 0.0 0.0 0.00 0.00 0.00 95 1011.3
20260906101341 24 288 0.0 0.0 0.00 0.00 0.00 95 1011.6
20260906100836 24 288 0.0 0.0 0.00 0.00 0.00 95 1011.5
20260906100335 24 288 0.0 0.0 0.00 0.00 0.00 95 1011.4
20260906095831 24 288 0.0 0.0 0.00 0.00 0.00 95 1011.5
20260906095326 24 288 0.0 0.0 0.00 0.00 0.00 96 1011.5
20260906094826 24 288 0.0 0.0 0.00 0.00 0.00 96 1011.3
20260906094321 24 288 0.0 0.0 0.00 0.00 0.00 96 1011.3
20260906093817 24 288 0.0 0.0 0.00 0.00 0.00 96 1011.8
20260906093313 24 288 0.0 0.0 0.00 0.00 0.00 95 1011.4
20260906092808 24 288 0.0 0.0 0.00 0.00 0.00 95 1011.4
20260906092308 24 288 0.0 0.0 0.00 0.00 0.00 95 1011.4
20260906091803 25 291 0.0 0.0 0.00 0.00 0.00 95 1011.5
20260906091259 25 291 0.0 0.0 0.00 0.00 0.00 95 1011.4
20260906090755 25 291 0.0 0.0 0.00 0.00 0.00 95 1011.2
20260906090254 25 291 0.0 0.0 0.00 0.00 0.00 95 1011.4
20260906085754 25 291 0.0 0.0 0.00 0.00 0.00 95 1011.4
20260906085253 25 291 0.0 0.0 0.00 0.00 0.00 95 1011.1
20260906084748 25 291 0.0 0.0 0.00 0.00 0.00 95 1011.0
20260906084248 25 291 0.0 0.0 0.00 0.00 0.00 95 1011.1
20260906083743 25 291 0.0 0.0 0.00 0.00 0.00 96 1011.2
20260906083239 25 283 0.0 0.0 0.00 0.00 0.00 96 1011.3
20260906082733 25 267 0.0 0.0 0.00 0.00 0.00 96 1011.0
20260906082228 24 256 0.0 0.0 0.00 0.00 0.00 95 1011.1
20260906081724 24 256 0.0 0.0 0.00 0.00 0.00 95 1011.0
20260906081219 25 256 0.0 0.0 0.00 0.00 0.00 95 1011.0
20260906080716 24 256 0.0 0.0 0.00 0.00 0.00 95 1010.9
20260906080212 24 254 0.0 0.0 0.00 0.00 0.00 95 1010.9
20260906075712 24 254 0.0 0.0 0.00 0.00 0.00 95 1010.9
20260906075206 24 254 0.0 0.0 0.00 0.00 0.00 95 1010.9
20260906074701 24 254 0.0 0.0 0.00 0.00 0.00 95 1010.8
20260906074200 24 254 0.0 0.0 0.00 0.00 0.00 94 1011.0
20260906073656 25 285 0.0 0.0 0.00 0.00 0.00 94 1010.8
20260906073151 25 285 0.0 0.0 0.00 0.00 0.00 95 1011.0
20260906072646 25 285 0.0 0.0 0.00 0.00 0.00 95 1010.7
20260906072142 25 285 0.0 0.0 0.00 0.00 0.00 95 1010.7
20260906071638 25 285 0.0 0.0 0.00 0.00 0.00 94 1010.9
20260906071138 25 285 0.0 0.0 0.00 0.00 0.00 94 1011.0
20260906070635 25 285 0.0 0.0 0.00 0.00 0.00 94 1010.9
20260906070130 25 285 0.0 0.0 0.00 0.00 0.00 94 1011.0
20260906065630 25 285 0.0 0.0 0.00 0.00 0.00 94 1010.9
20260906065125 25 285 0.0 0.0 0.00 0.00 0.00 93 1010.9
20260906064620 25 285 0.0 0.0 0.00 0.00 0.00 93 1010.9
20260906064115 25 286 0.0 0.0 0.00 0.00 0.00 92 1010.7
20260906063616 25 286 0.0 0.0 0.00 0.00 0.00 93 1010.9
20260906063112 25 286 0.0 0.0 0.00 0.00 0.00 93 1010.9
20260906062607 25 286 0.0 0.0 0.00 0.00 0.00 93 1010.9
20260906062106 25 286 0.0 0.0 0.00 0.00 0.00 92 1011.1
20260906061603 25 286 0.0 0.0 0.00 0.00 0.00 91 1011.1
20260906061102 25 286 0.0 0.0 0.00 0.00 0.00 90 1011.3
20260906060558 25 286 0.0 0.0 0.00 0.00 0.00 90 1011.4
20260906060055 25 286 0.0 0.0 0.00 0.00 0.00 90 1011.3
20260906055551 25 286 0.0 0.0 0.00 0.00 0.00 90 1011.2
20260906055046 25 286 0.0 0.0 0.00 0.00 0.00 89 1011.2
20260906054541 25 286 0.0 0.0 0.00 0.00 0.00 89 1011.4
20260906054036 25 286 0.0 0.0 0.00 0.00 0.00 90 1011.3
20260906053532 25 286 0.0 0.0 0.00 0.00 0.00 91 1011.4
20260906053028 25 286 0.0 0.0 0.00 0.00 0.00 91 1011.5
20260906052523 25 287 0.0 0.0 0.00 0.00 0.00 92 1011.5
20260906052021 25 274 0.0 0.0 0.00 0.00 0.00 92 1011.3
20260906051516 25 273 0.0 0.0 0.00 0.00 0.00 92 1011.3
20260906051011 25 273 0.0 0.0 0.00 0.00 0.00 92 1011.6
20260906050506 25 273 0.0 0.0 0.00 0.00 0.00 92 1011.3
20260906050006 25 273 0.0 0.0 0.00 0.00 0.00 91 1011.2
20260906045504 25 273 0.0 0.0 0.00 0.00 0.00 91 1011.2
20260906045000 25 273 0.0 0.0 0.00 0.00 0.00 91 1011.3
20260906044455 25 273 0.0 0.0 0.00 0.00 0.00 91 1011.2
20260906043951 26 273 0.0 0.0 0.00 0.00 0.00 91 1011.3
20260906043446 26 273 0.0 0.0 0.00 0.00 0.00 91 1011.0
20260906042942 26 273 0.0 0.0 0.00 0.00 0.00 91 1011.3
20260906042441 26 273 0.0 0.0 0.00 0.00 0.00 91 1011.3
20260906041936 26 273 0.0 0.0 0.00 0.00 0.00 91 1011.4
20260906041433 26 273 0.0 0.0 0.00 0.00 0.00 90 1011.1
20260906040932 26 273 0.0 0.0 0.00 0.00 0.00 89 1011.1
20260906040427 26 273 0.0 0.0 0.00 0.00 0.00 89 1011.2
20260906035922 26 273 0.0 0.0 0.00 0.00 0.00 89 1011.1
20260906035418 26 273 0.0 0.0 0.00 0.00 0.00 88 1011.2
20260906034913 26 273 0.0 0.0 0.00 0.00 0.00 88 1011.2
20260906034413 26 273 0.0 0.0 0.00 0.00 0.00 88 1011.1
20260906033909 26 273 0.0 0.0 0.00 0.00 0.00 88 1011.2
20260906033408 26 273 0.0 0.0 0.00 0.00 0.00 88 1011.2
20260906032904 26 273 0.0 0.0 0.00 0.00 0.00 88 1011.2
20260906032401 26 273 0.0 0.0 0.00 0.00 0.00 88 1011.3
20260906031855 26 273 0.0 0.0 0.00 0.00 0.00 87 1011.4
20260906031350 26 273 0.0 0.0 0.00 0.00 0.00 88 1011.2
20260906030845 26 273 0.0 0.0 0.00 0.00 0.00 88 1011.2
20260906030340 26 273 0.0 0.0 0.00 0.00 0.00 88 1011.2
20260906025835 26 273 0.0 0.0 0.00 0.00 0.00 87 1011.3
20260906025328 26 273 0.0 0.0 0.00 0.00 0.00 86 1011.1
20260906024828 27 273 0.0 0.0 0.00 0.00 0.00 86 1011.4
20260906024327 27 274 0.0 0.0 0.00 0.00 0.00 85 1011.1
20260906023823 27 274 0.0 0.0 0.00 0.00 0.00 86 1011.0
20260906023318 27 274 0.0 0.0 0.00 0.00 0.00 85 1010.9
20260906022814 27 274 0.0 0.0 0.00 0.00 0.00 85 1011.1
20260906022308 27 274 0.0 0.0 0.00 0.00 0.00 85 1011.0
20260906021805 27 274 0.0 0.0 0.00 0.00 0.00 84 1010.8
20260906021304 27 274 0.0 0.0 0.00 0.00 0.00 84 1010.7
20260906020759 27 274 0.0 0.0 0.00 0.00 0.00 84 1010.7
20260906020258 27 274 0.0 0.0 0.00 0.00 0.00 83 1010.9
20260906015758 27 274 0.0 0.0 0.00 0.00 0.00 83 1010.5
20260906015256 27 274 0.0 0.0 0.00 0.00 0.00 83 1010.7
20260906014751 27 274 0.0 0.0 0.00 0.00 0.00 83 1010.6
20260906014247 27 274 0.0 0.0 0.00 0.00 0.00 82 1010.4
20260906013743 28 274 0.0 0.0 0.00 0.00 0.00 82 1010.4
20260906013243 28 274 0.0 0.0 0.00 0.00 0.00 82 1010.6
20260906012738 28 274 0.0 0.0 0.00 0.00 0.00 81 1010.3
20260906012233 28 274 0.0 0.0 0.00 0.00 0.00 81 1010.3
20260906011729 28 274 0.0 0.0 0.00 0.00 0.00 80 1010.6
20260906011228 28 274 0.0 0.0 0.00 0.00 0.00 80 1010.3
20260906010724 28 274 0.0 0.0 0.00 0.00 0.00 80 1010.2
20260906010220 28 274 0.0 0.0 0.00 0.00 0.00 79 1010.0
20260906005715 29 274 0.0 0.0 0.00 0.00 0.00 78 1010.2
20260906005214 29 274 0.0 0.0 0.00 0.00 0.00 78 1010.0
20260906004713 29 274 0.0 0.0 0.00 0.00 0.00 76 1009.8
20260906004208 30 274 0.0 0.0 0.00 0.00 0.00 76 1010.4
20260906003704 30 274 0.0 0.0 0.00 0.00 0.00 76 1010.1
20260906003200 30 274 0.0 0.0 0.00 0.00 0.00 75 1010.1
20260906002659 30 274 0.0 0.0 0.00 0.00 0.00 74 1010.1
20260906002154 30 274 0.0 0.0 0.00 0.00 0.00 73 1010.1
20260906001650 30 274 0.0 0.0 0.00 0.00 0.00 72 1010.0
20260906001149 31 274 0.0 0.0 0.00 0.00 0.00 71 1010.0
20260906000645 31 274 0.0 0.0 0.00 0.00 0.00 71 1010.1
20260906000140 31 274 0.0 0.0 0.00 0.00 0.00 69 1009.9
20260905235639 31 274 0.0 0.0 0.00 0.00 0.00 68 1009.9
20260905235134 32 274 0.0 0.0 0.00 0.00 0.00 67 1010.2
20260905234630 32 274 0.0 0.0 0.00 0.00 0.00 64 1010.0
20260905234125 32 274 0.0 0.0 0.00 0.00 0.00 64 1010.0
20260905233620 32 274 0.0 0.0 0.00 0.00 0.00 64 1010.0
20260905233120 32 274 0.0 0.0 0.00 0.00 0.00 62 1010.2
20260905232616 32 275 0.0 0.0 0.00 0.00 0.00 62 1010.5
20260905232112 33 275 0.0 0.0 0.00 0.00 0.00 61 1010.3
20260905231611 33 267 0.0 0.0 0.00 0.00 0.00 61 1010.1
20260905231108 33 267 0.0 0.0 0.00 0.00 0.00 59 1010.0
20260905230603 33 265 0.0 0.0 0.00 0.00 0.00 56 1010.3
20260905225600 35 242 0.0 0.0 0.00 0.00 0.00 52 1010.1
20260905225056 35 241 0.0 0.0 0.00 0.00 0.00 52 1010.2
20260905224555 35 241 0.0 0.0 0.00 0.00 0.00 52 1010.4
20260905224055 35 241 0.0 0.0 0.00 0.00 0.00 52 1010.1
20260905223553 35 231 0.0 0.0 0.00 0.00 0.00 52 1010.1
20260905223048 35 69 0.0 0.0 0.00 0.00 0.00 52 1010.1
20260905222548 35 69 0.0 0.0 0.00 0.00 0.00 54 1010.3
20260905222044 35 306 0.0 0.0 0.00 0.00 0.00 53 1010.3
20260905221540 35 226 0.0 0.0 0.00 0.00 0.00 53 1010.1
20260905221036 35 233 0.0 0.0 0.00 0.00 0.00 53 1010.3
20260905220531 35 229 0.0 1.6 0.00 0.00 0.00 55 1010.2
20260905220027 35 240 0.0 0.0 0.00 0.00 0.00 55 1010.4
20260905215526 35 226 0.0 0.0 0.00 0.00 0.00 54 1010.5
20260905215023 35 224 1.6 1.6 0.00 0.00 0.00 53 1010.5
20260905214518 35 94 1.6 1.6 0.00 0.00 0.00 53 1010.4
20260905214013 35 224 0.0 1.6 0.00 0.00 0.00 52 1010.5
20260905213509 35 190 0.0 1.6 0.00 0.00 0.00 52 1010.3
20260905213004 33 224 1.6 1.6 0.00 0.00 0.00 55 1010.7
20260905212459 33 278 0.0 0.0 0.00 0.00 0.00 57 1010.7
20260905211958 33 255 0.0 0.0 0.00 0.00 0.00 55 1010.5
20260905211454 33 243 0.0 0.0 0.00 0.00 0.00 54 1010.4
20260905210949 32 201 3.2 3.2 0.00 0.00 0.00 57 1010.7
20260905210444 32 211 3.2 3.2 0.00 0.00 0.00 58 1010.8
20260905205944 31 210 1.6 3.2 0.00 0.00 0.00 64 1010.7
20260905205439 31 237 1.6 3.2 0.00 0.00 0.00 66 1011.3
20260905204938 31 236 3.2 3.2 0.00 0.00 0.00 66 1011.5
20260905204434 35 240 4.8 4.8 0.00 0.00 0.00 61 1011.3
20260905203933 35 233 1.6 1.6 0.00 0.00 0.00 52 1011.0
20260905203428 36 260 0.0 0.0 0.00 0.00 0.00 51 1011.2
20260905202923 36 80 3.2 4.8 0.00 0.00 0.00 49 1011.2
20260905202419 37 61 1.6 3.2 0.00 0.00 0.00 48 1011.0
20260905201914 37 36 1.6 3.2 0.00 0.00 0.00 46 1011.2
20260905201409 36 248 0.0 0.0 0.00 0.00 0.00 47 1011.1
20260905200909 35 203 4.8 4.8 0.00 0.00 0.00 49 1011.3
20260905200405 34 310 0.0 0.0 0.00 0.00 0.00 57 1011.3
20260905195903 34 310 0.0 0.0 0.00 0.00 0.00 58 1011.3
20260905195358 35 310 0.0 0.0 0.00 0.00 0.00 57 1011.3
20260905194855 35 310 0.0 0.0 0.00 0.00 0.00 55 1011.5
20260905194354 35 310 0.0 0.0 0.00 0.00 0.00 54 1011.6
20260905193853 35 309 0.0 0.0 0.00 0.00 0.00 54 1011.5
20260905193348 36 339 0.0 0.0 0.00 0.00 0.00 51 1011.7
20260905192844 37 335 0.0 0.0 0.00 0.00 0.00 49 1011.6
20260905192339 37 51 1.6 3.2 0.00 0.00 0.00 48 1011.8
20260905191839 39 286 1.6 1.6 0.00 0.00 0.00 44 1011.7
20260905191338 38 240 0.0 0.0 0.00 0.00 0.00 44 1011.7
20260905190837 38 269 0.0 1.6 0.00 0.00 0.00 45 1011.9
20260905190330 37 71 4.8 8.0 0.00 0.00 0.00 46 1012.0
20260905185829 38 194 1.6 3.2 0.00 0.00 0.00 46 1011.9
20260905185325 37 218 0.0 1.6 0.00 0.00 0.00 48 1012.3
20260905184824 36 313 1.6 1.6 0.00 0.00 0.00 52 1012.2
20260905184323 36 274 0.0 0.0 0.00 0.00 0.00 51 1012.5
20260905183821 37 322 0.0 0.0 0.00 0.00 0.00 51 1012.1
20260905183318 37 234 1.6 1.6 0.00 0.00 0.00 48 1012.5
20260905182818 37 61 1.6 1.6 0.00 0.00 0.00 48 1012.6
20260905182317 38 45 0.0 0.0 0.00 0.00 0.00 46 1012.1
20260905181813 37 16 0.0 1.6 0.00 0.00 0.00 46 1012.4
20260905181312 36 22 0.0 1.6 0.00 0.00 0.00 51 1012.4
20260905180811 36 294 0.0 1.6 0.00 0.00 0.00 52 1012.4
20260905180307 37 269 0.0 0.0 0.00 0.00 0.00 48 1012.3
20260905175801 37 333 0.0 0.0 0.00 0.00 0.00 49 1012.4
20260905175256 38 336 1.6 1.6 0.00 0.00 0.00 48 1012.8
20260905174752 38 190 3.2 4.8 0.00 0.00 0.00 47 1012.5
20260905174247 37 334 3.2 3.2 0.00 0.00 0.00 48 1012.7
20260905173743 36 324 0.0 0.0 0.00 0.00 0.00 54 1012.7
20260905173239 36 353 0.0 0.0 0.00 0.00 0.00 52 1012.7
20260905172738 37 278 0.0 1.6 0.00 0.00 0.00 49 1012.8
20260905172232 39 212 1.6 1.6 0.00 0.00 0.00 45 1012.8
20260905171729 38 52 0.0 1.6 0.00 0.00 0.00 47 1013.1
20260905171225 37 35 1.6 1.6 0.00 0.00 0.00 49 1012.9
20260905170721 38 105 1.6 3.2 0.00 0.00 0.00 47 1013.1
20260905170221 37 80 1.6 1.6 0.00 0.00 0.00 48 1013.1
20260905165721 37 41 1.6 1.6 0.00 0.00 0.00 50 1013.2
20260905165216 37 356 1.6 1.6 0.00 0.00 0.00 51 1013.3
20260905164716 38 82 1.6 3.2 0.00 0.00 0.00 49 1013.7
20260905164216 37 105 0.0 1.6 0.00 0.00 0.00 50 1013.5
20260905163712 37 337 1.6 1.6 0.00 0.00 0.00 53 1013.6
20260905163209 37 324 0.0 1.6 0.00 0.00 0.00 51 1013.5
20260905162704 37 42 1.6 3.2 0.00 0.00 0.00 52 1013.5
20260905162204 36 182 1.6 3.2 0.00 0.00 0.00 53 1013.7
20260905161659 36 49 3.2 3.2 0.00 0.00 0.00 53 1013.8
20260905161157 36 272 1.6 1.6 0.00 0.00 0.00 54 1013.4
20260905160656 36 343 1.6 3.2 0.00 0.00 0.00 54 1013.8
20260905160155 35 249 0.0 1.6 0.00 0.00 0.00 57 1013.6
20260905155650 35 334 1.6 1.6 0.00 0.00 0.00 59 1013.8
20260905155149 35 172 0.0 1.6 0.00 0.00 0.00 58 1014.1
20260905154643 35 344 1.6 3.2 0.00 0.00 0.00 60 1014.0
20260905154139 35 320 0.0 0.0 0.00 0.00 0.00 59 1013.8
20260905153635 35 337 1.6 1.6 0.00 0.00 0.00 59 1014.0
20260905153130 35 290 1.6 1.6 0.00 0.00 0.00 59 1013.9
20260905152625 34 289 1.6 1.6 0.00 0.00 0.00 63 1013.8
20260905152119 34 313 0.0 0.0 0.00 0.00 0.00 63 1013.9
20260905151614 34 281 1.6 1.6 0.00 0.00 0.00 62 1013.8
20260905151110 34 336 1.6 1.6 0.00 0.00 0.00 65 1014.0
20260905150605 33 222 0.0 0.0 0.00 0.00 0.00 63 1013.9
20260905150103 33 201 1.6 1.6 0.00 0.00 0.00 64 1013.9
20260905145556 33 104 1.6 1.6 0.00 0.00 0.00 66 1013.9
20260905145055 33 332 0.0 0.0 0.00 0.00 0.00 69 1014.0
20260905144550 32 332 0.0 0.0 0.00 0.00 0.00 68 1013.7
20260905144050 31 332 0.0 0.0 0.00 0.00 0.00 71 1013.8
20260905143549 31 332 0.0 0.0 0.00 0.00 0.00 72 1013.8
20260905143044 31 333 0.0 0.0 0.00 0.00 0.00 72 1013.8
20260905142543 30 231 0.0 0.0 0.00 0.00 0.00 72 1013.7
20260905142038 30 212 0.0 0.0 0.00 0.00 0.00 73 1013.9
20260905141532 30 338 0.0 0.0 0.00 0.00 0.00 75 1013.8
20260905141030 30 339 0.0 0.0 0.00 0.00 0.00 76 1013.6
20260905140529 29 335 0.0 0.0 0.00 0.00 0.00 79 1013.7
20260905140028 28 352 0.0 0.0 0.00 0.00 0.00 79 1013.7
20260905135524 28 352 0.0 0.0 0.00 0.00 0.00 80 1013.8
20260905135019 29 41 0.0 0.0 0.00 0.00 0.00 79 1013.7
20260905134514 30 41 0.0 0.0 0.00 0.00 0.00 77 1013.7
20260905134012 30 157 0.0 0.0 0.00 0.00 0.00 77 1013.8
20260905133508 29 39 0.0 0.0 0.00 0.00 0.00 79 1013.6
20260905133008 29 39 0.0 0.0 0.00 0.00 0.00 79 1013.5
20260905132503 28 39 0.0 0.0 0.00 0.00 0.00 81 1013.7
20260905132002 28 39 0.0 0.0 0.00 0.00 0.00 83 1013.4
20260905131458 27 39 0.0 0.0 0.00 0.00 0.00 85 1013.8
20260905130953 27 39 0.0 0.0 0.00 0.00 0.00 84 1013.5
20260905130452 27 39 0.0 0.0 0.00 0.00 0.00 85 1013.6
20260905125952 27 39 0.0 0.0 0.00 0.00 0.00 87 1013.6
20260905125447 26 39 0.0 0.0 0.00 0.00 0.00 88 1013.5
20260905124942 26 39 0.0 0.0 0.00 0.00 0.00 89 1013.4
20260905124440 26 50 0.0 0.0 0.00 0.00 0.00 89 1013.3
20260905123940 25 49 0.0 0.0 0.00 0.00 0.00 91 1013.4
20260905123437 25 49 0.0 0.0 0.00 0.00 0.00 94 1013.6